Location: Altenst�hlen
(53.5567°N, 8.9425°E)
Time: 06:06:38
(UTC+00:00)

STARLINK-21 - Pass Details

Date: 23 October 2019
Orbit: 550 x 552 km, 53.0° (Epoch: 18 November)

Event Time Altitude Azimuth Distance (km) Brightness Sun altitude
Rises 17:43:31 0° 276° (W) 2,723 9.1 -14.4°
Reaches altitude 10° 17:45:45 10° 275° (W) 1,829 7.7 -14.7°
Maximum altitude 17:49:54 79° 189° (S) 567 3.6 -15.3°
Enters shadow 17:51:57 29° 107° (ESE) 1,029 4.4 -15.6°
